Location: Kalberh�ni
(46.4610°N, 7.2453°E)
Time: 06:15:56
(UTC+00:00)

Cosmos 2333 Rocket - Pass Details

Date: 27 October 2021
Orbit: 837 x 865 km, 70.8° (Epoch: 05 December)

Event Time Altitude Azimuth Distance (km) Brightness Sun altitude
Exits shadow 02:52:37 23° 3° (N) 1,763 4.0 -33.5°
Maximum altitude 02:55:28 36° 52° (NE) 1,338 3.6 -33.0°
Drops below altitude 10° 03:00:45 10° 119° (ESE) 2,503 5.1 -32.1°
Sets 03:03:25 0° 128° (SE) 3,437 5.8 -31.7°
